Location: Dos Palmas
(32.4468°N, 116.8732°W)
Time: 09:04:04
(UTC+00:00)

N. Korean satellite - Visible Passes

Search period start: 28 November 2022 00:00
Search period end: 08 December 2022 00:00
Orbit: 422 x 454 km, 97.3° (Epoch: 27 November)

Date Brightness Start Highest point End Pass type
(mag) Time Alt. Az. Time Alt. Az. Time Alt. Az.
28 Nov 9.7 12:09:34 10° ENE 12:11:23 14° E 12:13:10 10° SE visible
28 Nov 7.6 13:41:08 10° NNW 13:43:49 22° WNW 13:46:30 10° SW visible
29 Nov 6.3 13:01:54 10° N 13:05:19 88° WNW 13:08:41 10° SSW visible
30 Nov 9.0 12:23:52 10° NE 12:26:35 22° E 12:29:16 10° SSE visible
30 Nov 8.2 13:57:01 10° NW 13:58:50 14° WNW 14:00:39 10° WSW visible
01 Dec 6.5 13:17:04 10° N 13:20:22 49° WNW 13:23:37 10° SSW visible
02 Dec 9.7 01:15:25 10° SW 01:17:26 15° W 01:19:30 10° WNW visible
02 Dec 7.9 12:38:28 10° NNE 12:41:38 36° E 12:44:45 10° SSE visible
03 Dec 7.2 13:32:16 10° NNW 13:35:15 29° WNW 13:38:11 10° SW visible
04 Dec 6.7 12:53:10 10° NNE 12:56:33 64° E 12:59:51 10° S visible
05 Dec 9.4 12:15:25 10° NE 12:17:37 16° E 12:19:47 10° SE visible
05 Dec 7.8 13:47:36 10° NNW 13:49:58 18° WNW 13:52:20 10° WSW visible
06 Dec 6.2 13:07:55 10° N 13:11:17 71° WNW 13:14:36 10° SSW visible
07 Dec 9.5 01:05:38 10° SSW 01:08:14 21° W 01:10:52 10° NW visible
07 Dec 8.6 12:29:30 10° NE 12:32:23 26° E 12:35:13 10° SSE visible
07 Dec 8.3 14:03:23 10° NW 14:04:33 11° WNW 14:05:44 10° W visible
